Theta_e
328 330 331 329 328 328 329 336 341 343 342 343 343 344 341 340 340 343 343 341 343 342 338 335 331 327 326 325 329 330 331 333 332 329 329 329 329 328 327 326 325 324 326 326
329 331 328 327 327 332 335 339 343 344 341 342 343 342 341 339 340 341 341 341 343 340 339 337 333 329 328 329 331 332 333 331 330 329 329 327 328 328 327 326 323 322 324 326
330 329 326 327 329 333 336 339 344 342 341 341 342 343 340 340 341 340 340 341 341 338 339 340 338 333 329 329 331 333 331 330 329 327 325 324 324 325 326 328 328 326 325 325
329 327 327 329 329 328 332 333 341 343 341 344 341 343 343 343 343 340 340 340 338 338 338 338 341 338 334 330 329 332 330 328 327 326 327 326 329 326 328 328 327 326 325 327
329 328 328 329 329 327 333 337 340 339 343 343 343 344 342 340 341 341 340 339 339 338 339 341 341 339 336 332 329 329 330 330 328 326 325 326 326 326 328 329 328 328 327 327
328 325 327 328 332 330 335 338 338 337 339 344 342 345 340 339 340 341 340 339 339 339 338 338 341 339 339 335 331 329 327 329 327 327 326 325 324 328 330 331 331 329 330 328
329 328 326 328 336 334 335 342 343 344 344 344 340 344 342 340 338 340 341 341 340 339 338 338 338 339 341 339 335 331 327 327 326 327 327 326 327 327 332 333 332 331 330 329
330 330 329 330 333 337 338 338 339 342 340 339 341 347 341 339 339 339 340 340 339 339 338 339 338 338 337 340 336 333 331 328 327 330 331 331 331 328 328 332 333 331 330 330
331 330 327 329 333 333 335 337 334 341 338 343 344 342 341 338 338 341 341 341 341 339 337 337 335 334 335 339 339 336 334 334 332 333 330 331 332 331 330 331 332 333 331 329
332 331 327 331 331 332 335 332 338 338 346 344 343 345 342 341 342 342 342 341 340 338 337 337 337 338 340 339 339 338 336 336 336 335 333 331 333 334 334 333 332 332 332 330
329 333 330 330 334 336 335 337 336 338 340 345 340 339 341 341 341 343 341 339 338 337 337 337 337 336 338 339 339 339 338 338 338 338 337 337 336 334 333 333 332 332 333 331
330 335 332 336 332 332 334 338 339 338 342 342 344 342 339 339 341 340 340 339 338 337 336 336 337 336 336 336 339 340 340 340 340 340 335 333 336 333 334 330 332 331 333 332
331 337 337 339 336 333 337 336 334 337 342 347 343 340 338 339 341 339 339 339 338 337 337 337 337 337 337 338 339 340 340 340 339 337 334 333 334 336 334 332 332 331 331 332
339 340 339 331 335 336 338 336 335 338 342 342 341 343 342 343 344 342 341 339 337 336 337 339 339 339 337 338 340 339 339 338 334 334 334 334 336 334 334 333 333 332 331 330
342 343 337 336 335 336 335 335 336 337 337 340 342 341 344 343 344 341 340 337 336 336 338 339 340 340 337 338 338 338 336 331 334 333 335 336 335 336 336 335 333 331 330 329
337 344 339 340 337 335 336 337 338 337 338 339 342 344 342 342 339 339 339 337 336 336 338 339 340 340 339 338 338 336 333 334 334 334 329 328 327 332 333 334 334 330 327 327
344 344 342 340 338 336 338 337 336 342 341 341 344 342 342 341 339 340 339 337 337 338 338 340 341 339 338 337 337 335 333 333 334 332 331 330 327 330 331 332 333 332 331 329
344 345 340 341 339 341 337 336 337 339 345 342 342 343 343 340 339 337 336 337 337 338 339 341 340 338 337 336 335 333 332 331 332 331 328 328 325 326 325 327 327 325 326 326
338 341 343 342 340 337 337 339 340 345 344 344 343 343 341 338 336 338 335 335 337 338 339 340 338 337 335 335 331 332 332 331 329 328 328 326 323 323 320 321 324 325 326 325
337 341 343 340 342 338 340 337 341 341 348 345 343 343 341 337 337 333 335 336 339 339 339 338 337 335 333 331 331 331 330 329 328 327 326 325 323 322 321 320 321 322 323 323
340 341 341 340 341 340 338 339 338 348 342 341 343 343 342 339 336 337 335 339 339 339 338 337 335 335 335 333 332 333 330 330 329 326 324 321 320 318 319 319 320 320 321 321
336 340 341 341 342 341 336 338 343 344 342 341 343 342 342 339 336 336 338 339 340 338 338 338 337 336 334 333 334 333 333 331 329 326 322 321 318 316 318 319 320 320 320 320
337 337 339 340 341 339 339 343 342 341 344 343 344 340 339 338 337 337 340 340 340 338 338 338 337 336 335 334 334 334 332 328 326 324 323 320 318 320 319 318 318 318 319 319
336 336 344 345 344 341 340 341 339 339 343 342 341 340 337 338 337 339 340 340 339 337 338 338 337 334 334 334 334 333 331 328 326 324 322 320 319 315 318 319 319 319 318 318
340 339 344 344 342 340 339 340 340 340 339 339 338 338 337 337 338 339 340 340 337 336 337 337 336 334 333 333 333 332 330 328 327 324 322 321 317 318 318 318 318 317 318 316
338 341 340 339 339 341 341 337 336 338 341 340 338 338 336 337 338 339 340 338 337 336 337 337 335 334 333 332 331 331 330 327 326 324 322 319 317 318 318 318 318 318 316 315
Wind_Speed
3 2 5 10 3 2 5 3 2 0 2 3 3 4 4 5 5 4 1 1 2 4 2 4 7 5 2 4 11 18 21 21 21 19 14 11 12 12 14 15 15 13 13 10
2 2 2 6 1 3 3 4 3 1 1 2 4 8 5 6 0 3 4 3 4 6 4 4 3 2 3 6 11 16 19 22 21 18 13 8 9 9 10 11 14 15 14 12
3 3 2 3 4 4 2 7 6 2 1 4 7 3 2 2 3 5 3 3 2 8 6 3 1 1 5 5 11 17 19 19 19 17 12 11 9 9 9 11 11 14 15 14
5 1 2 8 2 3 7 4 3 6 3 2 5 4 1 1 7 2 2 2 4 7 6 3 3 1 4 6 13 18 21 22 20 18 12 12 10 12 9 7 7 8 10 12
3 3 3 7 3 3 2 7 9 5 4 4 3 4 2 2 5 6 3 2 2 3 5 6 5 2 1 4 9 13 13 10 13 14 14 11 13 13 8 6 7 8 9 13
6 2 3 1 5 4 12 15 9 3 1 3 2 2 3 4 4 5 5 7 6 6 6 6 4 1 2 4 5 9 13 12 12 8 11 15 15 16 11 10 8 10 9 11
3 1 2 2 6 3 3 7 3 2 3 3 1 4 5 5 3 4 9 11 9 8 8 8 6 6 7 8 9 11 14 16 11 15 20 19 16 17 16 13 10 9 10 12
1 4 1 3 1 3 7 1 3 4 3 1 3 3 2 3 10 8 7 9 8 11 11 10 8 9 12 6 10 11 9 13 18 20 21 18 18 16 18 15 13 12 12 12
3 3 1 2 2 1 4 5 3 5 1 2 1 3 5 1 5 8 8 9 12 13 12 13 16 14 11 2 11 12 12 14 18 21 22 17 15 17 17 17 18 15 15 17
4 3 0 2 4 9 2 6 2 1 3 3 2 4 3 3 5 8 11 13 14 13 14 13 15 15 11 3 11 15 15 16 18 23 21 17 14 12 9 13 20 21 20 18
5 2 1 2 2 1 3 2 4 2 2 2 2 2 4 3 3 7 9 10 9 10 12 12 12 15 11 4 3 10 12 14 17 19 16 12 10 9 6 9 13 18 19 19
3 3 2 1 2 3 1 1 3 3 3 1 3 2 3 3 0 2 7 8 8 9 10 9 12 15 15 13 5 3 7 10 11 10 10 10 10 10 10 9 11 14 15 16
8 2 2 2 2 3 2 2 3 4 0 6 4 2 3 3 6 6 7 7 8 9 11 10 12 12 13 14 11 8 6 6 7 9 8 9 9 10 10 13 11 11 10 11
6 3 3 5 1 1 2 3 3 3 3 3 7 4 5 5 5 5 6 6 7 7 8 8 8 9 9 11 11 9 8 8 11 7 7 9 9 10 12 12 14 7 5 7
2 3 2 1 2 4 3 5 6 8 5 5 5 6 6 6 5 4 5 5 5 7 7 7 6 7 7 10 10 7 6 8 10 9 8 8 7 8 7 7 10 6 7 4
2 3 2 2 3 2 4 6 6 7 4 7 3 5 4 4 4 4 3 2 5 7 6 5 4 6 7 9 8 6 7 10 9 9 9 11 12 10 5 6 5 7 5 12
1 4 4 3 3 0 6 9 9 3 5 4 7 3 9 7 5 3 2 1 4 5 5 5 3 5 7 8 7 7 8 8 9 8 8 11 13 12 13 9 4 5 7 9
4 4 1 3 3 3 2 0 3 7 7 10 3 8 11 5 4 3 2 3 4 3 4 3 3 5 4 4 5 7 8 7 7 8 9 9 9 10 10 9 7 6 3 2
2 4 2 2 4 4 5 4 5 6 5 12 10 10 8 4 3 3 4 2 2 2 1 2 3 3 1 1 4 6 6 6 7 7 8 7 6 6 9 9 8 7 5 5
6 4 2 3 3 5 4 3 5 3 7 12 12 12 10 7 4 2 6 3 2 2 1 1 1 0 0 1 2 2 3 4 5 5 5 4 5 5 6 8 7 6 6 7
2 2 3 3 4 7 5 7 5 3 3 4 13 12 11 7 4 2 4 4 4 4 4 4 2 1 1 2 1 2 1 1 3 3 4 5 6 9 9 10 8 8 8 10
3 4 3 2 3 6 8 7 7 1 1 4 12 12 13 9 6 7 7 7 8 6 6 4 1 1 2 3 1 2 1 2 3 4 4 6 9 9 8 8 7 7 8 9
2 2 1 6 4 1 8 3 3 1 1 4 11 10 11 11 11 11 10 9 9 8 7 4 3 2 2 3 2 3 2 3 4 5 7 7 9 8 8 9 8 8 8 9
2 3 3 2 2 7 10 11 11 6 8 5 10 11 13 13 13 12 10 9 9 9 6 5 4 5 3 3 4 5 4 4 4 5 7 8 10 11 8 8 7 8 10 11
2 5 3 5 10 9 11 12 12 11 12 10 9 12 14 13 14 13 12 10 10 8 7 6 6 6 4 4 5 4 5 4 5 5 6 7 8 9 10 8 8 9 10 9
5 4 3 6 6 5 7 8 8 9 10 10 11 11 13 15 15 13 11 12 11 10 8 7 8 8 6 5 5 4 5 5 5 6 6 6 8 9 9 10 13 12 12 9
Wind_Direction
20 306 357 342 315 165 151 161 216 137 82 283 331 284 263 301 295 263 203 342 246 325 358 19 13 22 53 184 185 185 185 189 190 190 191 207 213 212 215 224 234 240 235 246
257 220 291 322 136 138 143 178 205 229 353 315 2 310 315 349 350 264 326 330 25 19 38 40 358 36 118 171 182 187 189 191 194 196 203 209 213 220 222 233 242 237 239 247
243 285 292 345 342 258 266 228 185 261 97 95 322 260 14 46 319 325 318 241 29 18 345 339 357 64 114 167 194 197 199 204 206 206 212 223 217 221 215 225 233 237 237 236
258 221 308 330 307 215 292 294 160 145 174 321 357 330 145 348 317 4 343 260 359 356 345 298 334 229 141 183 201 205 206 210 210 219 226 228 232 234 226 232 243 242 241 224
274 257 279 308 12 227 358 113 105 89 58 319 36 291 34 343 55 31 75 42 3 2 351 343 338 328 58 175 212 218 210 213 222 225 244 257 263 266 260 239 249 239 232 216
276 306 250 60 47 118 138 104 93 93 34 267 42 319 318 5 5 335 306 306 309 328 333 318 289 249 217 210 190 206 213 228 236 231 264 267 277 277 269 258 252 243 224 223
310 280 285 149 110 174 178 157 127 207 238 279 207 222 280 292 323 317 323 331 342 330 336 336 314 283 251 213 193 183 204 205 226 237 240 250 256 263 268 270 265 248 226 222
322 181 207 122 281 221 171 249 209 209 203 301 171 240 94 348 316 297 309 324 337 360 360 353 342 322 303 239 199 190 192 194 214 236 247 253 255 233 250 261 261 256 249 251
174 257 320 64 114 252 154 216 73 107 34 252 337 261 266 47 40 26 16 5 2 1 360 355 349 0 352 224 195 190 193 202 215 230 241 242 242 235 243 250 257 257 256 257
191 267 26 82 139 59 241 123 195 116 164 233 233 276 253 309 16 17 11 1 357 5 16 19 16 18 31 118 189 199 207 214 223 233 236 233 235 238 250 257 252 258 260 256
140 219 221 250 19 307 160 182 68 99 306 213 236 220 195 194 40 10 13 27 30 34 31 27 28 30 34 39 210 214 214 222 231 242 238 243 238 243 236 278 276 263 264 253
165 142 217 99 3 280 329 145 177 258 205 221 311 250 56 245 343 35 70 57 49 37 26 24 20 23 25 24 4 282 236 241 255 267 267 254 245 265 241 255 279 265 266 252
176 190 171 144 177 168 247 126 89 96 193 208 229 197 26 145 116 73 73 57 53 29 25 21 18 17 19 14 10 349 308 308 312 318 305 295 282 280 258 255 269 265 260 250
113 135 198 248 196 112 220 198 171 186 224 186 235 158 145 146 126 104 95 63 35 17 24 14 11 10 18 7 7 353 351 339 332 342 339 314 294 287 289 265 275 255 260 273
155 168 176 196 241 198 224 237 189 209 228 250 341 213 159 175 150 121 94 57 21 9 18 9 3 1 1 1 2 353 352 357 352 6 8 351 317 291 288 284 303 274 242 276
11 146 152 188 347 250 273 265 256 250 238 235 224 215 167 184 175 135 108 50 9 1 5 3 359 355 351 354 354 352 351 4 21 19 30 27 17 18 340 294 273 204 203 247
64 148 169 209 37 277 272 260 232 214 201 204 228 232 165 191 179 158 187 21 343 348 345 349 354 344 348 354 354 9 12 21 18 17 13 1 3 12 21 23 11 288 272 258
129 109 71 116 135 229 318 253 282 249 251 215 222 172 180 171 153 173 188 280 324 345 333 354 345 347 356 2 16 16 14 25 34 32 17 10 25 39 31 32 35 34 28 294
67 133 118 216 204 304 250 203 197 207 275 209 211 180 179 132 185 219 196 237 292 319 320 342 342 346 349 40 11 7 20 44 38 26 22 20 19 28 20 15 1 351 335 321
83 79 260 154 246 281 289 177 179 171 274 199 194 179 172 170 224 265 192 203 171 176 173 211 222 137 137 222 354 18 46 57 23 4 359 354 4 357 347 341 341 333 319 311
132 104 227 198 248 276 234 161 172 205 305 187 190 183 172 196 199 125 173 181 200 184 190 178 149 87 229 241 280 358 53 337 327 326 337 341 347 334 328 321 313 315 315 307
207 175 218 139 230 269 147 133 210 196 171 233 195 190 191 201 189 205 205 204 193 200 202 198 149 221 212 227 262 4 308 292 304 315 326 331 334 334 322 316 312 310 301 300
231 247 304 218 243 357 236 315 231 107 258 215 201 194 198 200 210 205 209 202 205 212 210 208 243 272 241 233 241 289 260 289 317 330 334 335 330 322 319 321 318 322 321 310
187 165 236 284 187 257 246 259 252 257 250 266 222 195 194 205 211 210 213 203 209 214 212 219 241 258 267 248 246 253 274 268 290 319 328 331 331 332 334 339 340 331 325 322
47 161 222 249 276 277 254 245 261 252 243 247 224 214 211 211 216 211 214 205 212 213 207 214 227 243 266 282 285 276 273 273 282 302 320 332 334 333 337 334 323 325 327 323
190 195 241 289 352 307 313 335 323 249 248 228 219 219 222 217 222 211 217 203 206 208 202 214 229 235 251 280 302 296 282 277 277 301 328 325 317 323 325 327 330 332 350 8